Back to catalog

STARLINK-34883

AliveCommunicationsVLEO
NORAD 65426·PAYLOAD·🇺🇸 United States

Launched Aug 31, 2025 from Cape Canaveral Space Force Station

Loading…

Next Passes (next 24 hours)

TLE

FreshSource: CelesTrak SupGP

Epoch: Sep 14, 2026, 23:10 UTC

1 65426C 25192Y   26257.96576389  .00044822  00000+0  14414-2 0  2579
2 65426  53.1573  71.9545 0001224  84.3171 162.8814 15.31677949    16

Track STARLINK-34883 in real time with AllMySat

Download on the App Store